TimeEDT,TemperatureF,Dew PointF,Humidity,Sea Level PressureIn,VisibilityMPH,Wind Direction,Wind SpeedMPH,Gust SpeedMPH,PrecipitationIn,Events,Conditions,WindDirDegrees,DateUTC
12:53 AM,35.1,27.0,72,30.16,10.0,Calm,Calm,-,N/A,,Clear,0,2013-04-06 04:53:00
1:53 AM,33.1,27.0,78,30.17,10.0,Calm,Calm,-,N/A,,Clear,0,2013-04-06 05:53:00
2:53 AM,34.0,25.0,70,30.18,10.0,ENE,6.9,-,N/A,,Clear,70,2013-04-06 06:53:00
3:53 AM,35.1,25.0,67,30.18,10.0,East,5.8,-,N/A,,Clear,80,2013-04-06 07:53:00
4:53 AM,37.0,23.0,57,30.18,10.0,ESE,5.8,-,N/A,,Clear,110,2013-04-06 08:53:00
5:53 AM,36.0,26.1,67,30.19,10.0,East,6.9,-,N/A,,Clear,90,2013-04-06 09:53:00
6:53 AM,36.0,24.1,62,30.22,10.0,East,5.8,-,N/A,,Clear,80,2013-04-06 10:53:00
7:53 AM,36.0,24.1,62,30.24,10.0,East,4.6,-,N/A,,Clear,90,2013-04-06 11:53:00
8:53 AM,42.1,23.0,47,30.23,10.0,ESE,9.2,-,N/A,,Clear,110,2013-04-06 12:53:00
9:53 AM,46.9,21.0,36,30.23,10.0,ESE,9.2,-,N/A,,Clear,110,2013-04-06 13:53:00
10:53 AM,50.0,21.0,32,30.21,10.0,SSE,6.9,-,N/A,,Partly Cloudy,150,2013-04-06 14:53:00
11:53 AM,54.0,23.0,30,30.18,10.0,Variable,6.9,-,N/A,,Scattered Clouds,0,2013-04-06 15:53:00
12:53 PM,59.0,24.1,26,30.16,10.0,Variable,5.8,17.3,N/A,,Partly Cloudy,0,2013-04-06 16:53:00
1:53 PM,64.0,27.0,25,30.12,10.0,South,8.1,-,N/A,,Clear,170,2013-04-06 17:53:00
2:53 PM,64.0,28.0,26,30.09,10.0,Variable,5.8,-,N/A,,Clear,0,2013-04-06 18:53:00
3:53 PM,66.9,28.9,24,30.05,10.0,SSW,8.1,18.4,N/A,,Clear,200,2013-04-06 19:53:00
4:53 PM,69.1,30.9,24,30.00,10.0,SSW,10.4,16.1,N/A,,Clear,200,2013-04-06 20:53:00
5:53 PM,66.9,32.0,27,29.97,10.0,SSE,10.4,16.1,N/A,,Clear,160,2013-04-06 21:53:00
6:53 PM,66.0,34.0,30,29.96,10.0,SSE,5.8,-,N/A,,Clear,150,2013-04-06 22:53:00
7:53 PM,66.0,35.1,32,29.93,10.0,Variable,6.9,-,N/A,,Clear,0,2013-04-06 23:53:00
8:53 PM,64.9,35.1,33,29.93,10.0,Variable,4.6,-,N/A,,Clear,0,2013-04-07 00:53:00
9:53 PM,63.0,36.0,37,29.94,10.0,SSE,3.5,-,N/A,,Clear,150,2013-04-07 01:53:00
10:53 PM,62.1,36.0,38,29.93,10.0,SSE,4.6,-,N/A,,Clear,160,2013-04-07 02:53:00
11:53 PM,62.1,35.1,37,29.92,10.0,South,5.8,-,N/A,,Clear,190,2013-04-07 03:53:00